Wind_Speed
7 5 3 2 1 1 1 3 4 5 4 4 6 7 7 9 10 11 11 11 12 12 13 11 10 10 10 10 11 10 10 9 10 8 7 6 5 4 3 4 4 3 2 2
7 4 3 3 3 3 3 3 3 3 5 5 6 8 7 7 8 9 10 10 10 10 12 11 10 10 10 10 10 9 9 9 9 8 8 6 5 4 4 3 3 3 3 3
7 5 6 7 6 4 5 4 4 3 5 4 5 7 8 8 7 8 9 9 9 9 10 11 10 9 9 9 9 9 9 9 9 8 8 7 5 4 3 3 3 3 2 3
10 10 10 10 8 6 6 5 4 4 5 6 6 9 10 8 10 10 9 9 10 9 9 10 10 9 9 10 9 9 9 9 9 8 8 7 6 4 3 3 3 3 2 2
12 12 12 12 10 9 9 6 3 3 5 6 7 9 10 10 9 9 10 9 9 9 8 9 9 10 9 9 9 10 9 9 9 8 7 7 6 5 3 3 3 3 2 2
14 14 14 13 12 11 10 7 5 5 7 7 6 9 10 12 11 9 8 9 9 8 8 8 9 10 10 9 9 9 9 9 9 9 8 6 5 5 5 4 4 3 3 3
13 13 14 14 13 12 10 7 6 8 9 8 6 8 10 12 11 10 9 9 8 9 9 9 9 10 11 10 9 9 9 9 10 9 8 6 5 5 5 5 4 4 4 4
14 15 15 15 14 13 13 11 10 9 9 10 8 9 11 11 12 11 10 9 10 9 9 9 9 9 10 11 10 9 9 9 9 9 9 7 6 6 6 5 6 6 5 4
17 18 18 18 17 14 14 14 12 11 10 11 10 11 12 12 13 14 12 10 10 10 10 10 9 10 10 10 10 10 10 10 10 10 10 9 8 6 6 6 6 6 5 5
20 20 19 19 18 17 15 14 13 12 11 11 11 12 13 14 14 14 12 11 10 10 11 11 11 11 11 10 10 10 10 10 10 10 10 10 9 7 7 6 7 7 6 5
23 21 21 21 21 19 18 17 15 15 13 13 12 14 15 15 14 15 15 14 12 11 11 11 12 12 11 11 11 11 10 10 10 10 10 10 9 9 8 7 7 6 6 5
26 24 23 23 23 21 20 19 17 17 17 15 15 15 16 16 16 16 15 14 13 12 12 12 13 13 13 13 12 12 12 11 11 11 10 10 10 10 9 8 7 7 6 6
28 27 25 23 22 22 23 21 19 18 18 18 17 18 17 18 19 17 15 16 15 14 14 14 15 15 14 14 14 13 13 13 12 12 11 11 11 11 10 9 8 8 8 7
30 30 28 26 23 23 24 24 22 21 22 20 19 20 18 19 19 18 18 18 18 17 16 16 16 16 16 16 15 15 15 14 13 13 12 11 11 11 10 9 9 9 9 8
33 33 31 30 28 25 26 26 25 25 25 24 23 22 20 22 23 21 22 21 20 20 17 17 18 18 17 17 16 16 16 15 14 13 13 12 11 11 10 9 9 9 10 9
35 34 33 32 31 29 29 28 28 27 27 27 26 25 24 25 25 24 25 23 22 20 19 19 19 19 19 18 17 17 16 16 15 13 12 12 12 11 10 10 10 10 11 11
34 35 34 34 33 33 33 30 30 29 28 28 28 27 27 28 27 26 26 25 24 23 22 20 20 20 20 20 18 18 17 17 15 14 13 13 13 12 12 12 12 12 12 12
34 36 35 34 34 37 34 32 32 33 32 32 32 30 30 30 30 29 28 27 27 25 24 22 21 22 21 20 19 18 18 17 16 15 15 14 14 13 13 13 13 13 13 14
34 35 35 34 34 35 34 32 31 32 33 33 34 33 32 31 31 31 31 30 30 28 26 25 24 23 22 21 20 20 19 18 17 16 16 15 15 14 14 15 15 15 16 15
34 36 37 36 35 35 34 31 31 32 35 34 33 33 33 32 32 32 33 31 31 29 28 26 25 24 23 22 21 21 20 19 18 18 17 17 17 17 16 16 16 17 16 16
34 36 37 37 37 36 33 32 31 33 35 34 34 34 34 33 32 32 33 32 31 30 29 28 26 25 25 23 22 21 20 20 20 20 19 19 19 18 18 18 18 18 18 18
34 35 37 37 37 37 35 34 35 35 35 35 35 34 34 33 32 32 32 32 31 30 30 29 27 26 25 25 24 23 22 22 21 21 20 21 21 20 20 20 20 20 20 20
36 36 35 37 36 36 36 36 36 37 37 36 36 36 35 35 34 33 33 32 32 32 31 30 28 28 27 26 26 25 25 24 24 23 22 22 22 22 22 22 22 22 22 22
37 38 37 38 39 38 36 36 37 38 38 38 37 36 36 36 35 34 34 33 33 33 32 31 29 28 28 29 28 27 27 26 26 25 24 24 24 23 23 23 23 23 23 23
36 38 39 39 38 38 37 37 37 38 39 38 37 36 35 36 35 34 33 33 32 32 32 31 31 30 30 30 30 30 29 28 28 27 26 25 24 24 24 24 24 24 24 25
36 37 37 37 38 38 38 37 38 39 39 39 38 38 36 36 35 35 34 33 32 32 31 32 31 31 31 31 31 31 31 30 30 29 28 27 26 26 26 25 25 25 25 26
Wind_Direction
189 172 169 209 346 22 356 322 330 341 345 345 338 351 11 22 19 17 19 21 24 27 26 29 34 34 30 25 24 27 30 26 28 35 37 46 55 60 71 73 66 62 71 71
207 201 215 235 233 251 258 278 286 309 329 333 332 337 344 8 8 5 8 12 17 20 22 22 26 27 24 21 21 27 28 25 25 31 33 39 48 56 59 64 60 46 42 45
218 228 241 236 229 237 268 267 262 281 305 315 317 323 337 350 348 348 356 3 8 10 17 16 18 22 20 14 14 17 18 17 19 25 27 31 43 49 47 50 38 28 35 25
219 228 237 240 235 227 251 259 257 265 288 302 317 315 325 331 331 334 342 352 358 2 11 13 14 15 16 13 10 11 10 11 13 18 17 22 29 39 40 35 27 13 357 350
224 229 235 240 236 231 234 240 255 278 277 288 300 309 311 318 322 328 336 340 346 356 0 4 7 9 8 7 5 4 5 6 7 11 15 20 24 31 25 10 3 358 349 332
230 232 233 237 236 235 235 230 259 278 274 275 294 301 296 305 316 318 322 332 337 344 348 352 358 2 2 2 0 358 0 5 3 5 4 10 13 12 7 4 2 353 349 334
235 238 239 238 232 233 234 235 252 262 269 269 277 285 293 308 311 314 317 323 330 332 336 339 347 355 359 356 354 356 352 357 360 1 360 359 1 356 354 350 350 347 343 338
237 242 241 242 236 233 231 228 235 255 271 281 275 272 287 301 304 309 309 313 320 323 325 331 337 346 351 353 352 348 347 349 353 354 354 350 354 356 354 354 354 357 356 358
224 235 238 241 239 234 232 228 229 246 265 276 271 281 286 291 296 296 297 304 313 315 315 320 327 333 339 345 347 346 345 346 349 350 352 354 352 353 355 352 350 350 348 346
224 232 236 243 244 240 233 235 232 233 246 256 267 272 276 279 289 293 293 295 300 307 306 308 313 320 325 332 336 337 334 335 338 340 341 342 343 340 344 347 341 335 332 330
231 230 236 238 238 237 237 233 232 233 233 245 262 270 277 279 282 289 292 294 291 296 300 307 310 311 313 316 320 324 325 326 326 327 328 329 330 328 329 334 329 324 322 316
234 231 233 238 241 242 241 238 236 240 243 242 252 265 275 280 279 284 284 288 287 286 291 299 305 306 307 308 310 313 315 316 317 318 318 318 318 319 318 318 320 321 316 313
235 233 233 235 238 244 242 238 233 236 247 250 253 260 264 275 275 276 279 283 280 279 283 291 297 299 303 304 304 305 307 307 308 311 312 311 310 310 308 307 312 313 310 311
235 234 232 232 231 239 243 244 239 234 237 243 246 254 260 268 273 278 276 275 277 278 277 285 290 293 297 299 300 301 301 301 301 302 303 303 304 302 299 299 302 303 304 305
236 236 234 234 232 233 240 242 242 241 239 238 240 243 251 264 268 272 274 274 276 275 277 282 286 289 292 294 295 297 297 297 296 296 296 296 298 298 293 294 294 296 298 299
240 239 237 238 235 232 237 241 242 243 243 243 243 244 247 255 264 267 271 275 277 275 277 278 281 284 288 290 290 290 291 292 294 294 293 291 293 295 289 288 291 290 291 292
240 240 239 240 240 238 237 237 241 244 244 246 248 249 249 253 257 262 267 271 275 275 275 276 278 281 282 285 286 286 286 286 287 289 289 287 288 290 287 286 289 287 289 290
241 241 240 241 241 242 239 238 241 243 243 244 245 247 249 253 256 258 262 266 268 271 272 274 276 278 279 280 281 281 282 282 284 285 286 286 284 284 285 286 288 289 291 291
242 243 242 242 244 246 242 239 241 243 244 245 246 248 249 253 256 258 260 262 264 267 269 270 273 275 276 276 275 275 278 279 282 283 284 284 283 281 282 285 286 287 288 290
243 244 243 242 244 245 243 243 243 243 244 246 247 248 250 253 255 257 260 262 263 263 264 265 266 269 271 271 271 271 273 276 278 280 279 281 282 280 280 282 284 284 285 288
242 245 245 244 244 245 244 242 242 242 245 247 249 248 249 252 254 257 260 261 262 261 261 262 262 264 267 266 266 268 270 271 273 275 276 279 279 279 278 278 280 283 283 285
242 245 248 247 246 245 243 240 239 241 245 248 250 251 251 253 255 257 258 258 259 259 260 260 259 260 262 263 263 266 268 269 271 273 275 276 276 277 278 278 278 280 283 284
241 242 245 246 246 246 242 238 238 242 245 247 250 252 252 254 255 256 257 256 256 257 258 258 258 258 258 260 262 264 265 266 269 270 273 275 275 277 278 279 278 278 281 283
242 242 243 243 242 240 241 239 240 243 245 246 248 251 252 254 254 254 254 255 254 255 257 257 257 257 258 258 260 263 263 263 266 269 271 275 276 277 278 280 279 279 280 280
243 244 243 243 243 241 240 241 242 243 245 247 249 250 250 252 252 253 253 253 254 254 255 256 256 257 257 258 259 261 261 263 264 266 269 272 274 276 278 279 279 279 279 280
243 243 243 241 242 241 241 242 243 245 246 247 248 249 250 251 252 252 252 252 253 254 254 256 256 256 257 258 259 260 261 263 264 266 268 270 272 275 277 278 279 279 280 282
Height
5908 5910 5912 5912 5914 5916 5917 5917 5917 5916 5916 5916 5914 5913 5911 5910 5909 5908 5907 5905 5904 5903 5901 5900 5898 5897 5896 5895 5894 5893 5891 5890 5889 5888 5887 5886 5886 5886 5886 5886 5886 5886 5887 5887
5908 5909 5912 5913 5914 5915 5916 5917 5916 5917 5916 5916 5915 5914 5912 5911 5910 5909 5908 5907 5906 5904 5903 5901 5900 5899 5898 5896 5895 5894 5893 5891 5890 5889 5889 5888 5887 5887 5887 5887 5887 5887 5887 5887
5907 5911 5912 5913 5914 5915 5916 5916 5916 5917 5916 5914 5915 5914 5913 5912 5911 5910 5909 5908 5907 5905 5904 5903 5902 5900 5899 5898 5897 5895 5894 5893 5892 5890 5890 5889 5888 5888 5888 5888 5888 5888 5888 5888
5906 5909 5911 5912 5913 5914 5916 5916 5916 5916 5916 5915 5916 5914 5912 5912 5911 5910 5910 5909 5907 5906 5905 5904 5903 5901 5900 5899 5898 5896 5895 5894 5893 5891 5891 5890 5889 5889 5889 5889 5888 5888 5888 5888
5904 5907 5909 5910 5912 5913 5914 5915 5915 5916 5915 5915 5915 5915 5912 5910 5911 5911 5910 5909 5908 5907 5906 5905 5904 5903 5901 5900 5899 5897 5896 5895 5894 5893 5892 5891 5891 5890 5890 5889 5889 5888 5888 5888
5902 5905 5907 5908 5910 5911 5912 5913 5914 5914 5914 5914 5916 5915 5913 5911 5910 5910 5909 5909 5909 5907 5906 5905 5904 5903 5902 5901 5899 5898 5897 5896 5895 5893 5893 5892 5891 5891 5890 5890 5889 5889 5888 5888
5899 5902 5904 5905 5907 5909 5911 5912 5914 5913 5913 5913 5915 5915 5913 5911 5910 5909 5909 5909 5909 5908 5907 5906 5905 5904 5902 5901 5900 5898 5897 5896 5895 5894 5893 5892 5892 5891 5890 5890 5889 5889 5888 5888
5898 5901 5902 5903 5904 5907 5909 5911 5913 5913 5913 5913 5913 5913 5913 5912 5910 5908 5908 5908 5908 5907 5906 5905 5904 5903 5902 5901 5900 5899 5898 5896 5896 5894 5894 5893 5892 5891 5890 5890 5889 5888 5888 5888
5895 5898 5899 5900 5902 5904 5905 5907 5910 5912 5912 5912 5912 5912 5911 5910 5910 5909 5908 5907 5908 5907 5906 5905 5904 5903 5902 5901 5900 5899 5898 5896 5896 5895 5894 5893 5892 5891 5890 5889 5889 5889 5888 5887
5890 5893 5896 5897 5898 5900 5903 5905 5907 5909 5909 5911 5911 5910 5909 5909 5908 5907 5905 5905 5905 5905 5905 5904 5903 5902 5902 5901 5900 5898 5897 5896 5895 5895 5894 5893 5892 5891 5890 5889 5889 5888 5887 5887
5885 5888 5891 5893 5894 5897 5900 5902 5903 5905 5907 5908 5909 5909 5907 5906 5906 5906 5905 5904 5904 5902 5903 5903 5902 5902 5901 5900 5899 5898 5897 5896 5895 5894 5893 5892 5891 5890 5889 5889 5888 5887 5887 5886
5879 5883 5885 5888 5891 5892 5895 5897 5900 5902 5903 5904 5906 5908 5904 5903 5903 5903 5903 5902 5902 5901 5901 5900 5900 5900 5899 5898 5897 5897 5896 5895 5894 5893 5892 5891 5890 5889 5888 5888 5887 5886 5886 5885
5873 5876 5879 5883 5888 5889 5890 5892 5895 5898 5900 5901 5903 5905 5902 5901 5899 5898 5899 5900 5899 5898 5899 5898 5898 5898 5897 5897 5896 5895 5894 5893 5892 5891 5890 5889 5888 5887 5886 5886 5885 5885 5884 5884
5866 5869 5873 5877 5880 5883 5884 5886 5889 5892 5894 5896 5899 5899 5898 5897 5895 5894 5895 5896 5896 5895 5895 5896 5896 5895 5895 5894 5893 5892 5891 5891 5890 5889 5888 5887 5886 5885 5884 5884 5883 5883 5882 5882
5858 5861 5864 5867 5872 5875 5878 5880 5883 5885 5887 5890 5892 5894 5894 5892 5891 5891 5891 5891 5892 5892 5891 5892 5892 5892 5892 5891 5890 5889 5889 5888 5887 5886 5886 5885 5884 5883 5883 5882 5882 5881 5880 5880
5848 5852 5856 5859 5863 5866 5870 5873 5876 5879 5881 5883 5885 5887 5888 5886 5886 5886 5886 5886 5887 5887 5887 5888 5888 5888 5888 5887 5887 5886 5885 5885 5884 5883 5883 5883 5882 5881 5880 5880 5879 5879 5878 5878
5840 5843 5847 5850 5855 5857 5860 5866 5869 5871 5874 5876 5878 5880 5880 5879 5880 5880 5881 5882 5882 5883 5883 5883 5883 5883 5883 5883 5883 5882 5882 5881 5881 5880 5880 5880 5879 5878 5878 5877 5877 5876 5876 5875
5832 5834 5837 5841 5845 5847 5854 5858 5861 5863 5865 5868 5869 5871 5873 5873 5873 5874 5875 5876 5876 5877 5878 5878 5878 5878 5878 5878 5878 5878 5878 5877 5877 5877 5876 5876 5876 5875 5875 5874 5874 5874 5873 5872
5823 5826 5829 5832 5835 5838 5844 5848 5852 5854 5856 5858 5860 5862 5864 5864 5865 5866 5867 5869 5870 5871 5872 5872 5873 5873 5873 5873 5873 5874 5873 5873 5873 5873 5873 5872 5872 5872 5871 5871 5870 5870 5869 5869
5814 5816 5820 5822 5825 5829 5835 5839 5842 5846 5846 5849 5851 5853 5855 5856 5858 5859 5859 5861 5862 5864 5865 5866 5867 5867 5867 5868 5868 5868 5868 5868 5869 5869 5869 5868 5868 5867 5867 5867 5866 5865 5865 5865
5805 5806 5809 5812 5815 5819 5826 5829 5833 5836 5838 5840 5842 5844 5846 5847 5849 5850 5851 5853 5855 5856 5858 5859 5860 5861 5861 5862 5862 5862 5862 5863 5864 5864 5864 5863 5863 5862 5862 5861 5861 5861 5860 5860
5796 5798 5800 5803 5806 5812 5816 5819 5822 5824 5827 5830 5832 5834 5837 5838 5840 5841 5843 5845 5846 5848 5849 5851 5852 5854 5855 5855 5856 5857 5857 5857 5858 5858 5858 5858 5857 5857 5856 5856 5855 5855 5855 5854
5786 5789 5791 5794 5798 5800 5804 5807 5810 5813 5817 5820 5822 5824 5826 5828 5831 5833 5834 5836 5838 5839 5841 5843 5844 5846 5847 5848 5849 5850 5850 5851 5851 5851 5851 5851 5851 5851 5850 5849 5849 5849 5848 5848
5775 5778 5780 5782 5785 5789 5793 5797 5800 5803 5806 5809 5812 5815 5817 5818 5821 5824 5826 5828 5830 5831 5833 5834 5836 5838 5839 5840 5842 5843 5843 5843 5844 5844 5844 5844 5844 5844 5843 5843 5842 5842 5842 5841
5764 5767 5767 5770 5775 5779 5783 5786 5790 5793 5796 5799 5802 5805 5807 5809 5811 5814 5817 5819 5821 5823 5824 5826 5827 5829 5831 5832 5834 5835 5836 5836 5837 5837 5837 5837 5837 5837 5836 5835 5835 5835 5835 5834
5754 5756 5757 5760 5764 5768 5772 5775 5779 5782 5785 5789 5792 5795 5797 5800 5802 5805 5807 5810 5812 5813 5815 5817 5818 5820 5822 5824 5825 5827 5827 5828 5829 5829 5829 5829 5829 5829 5829 5828 5828 5827 5827 5827